Regional Weather Roundup
Issued by NWS

Home | Current Version | Previous Version | Text Only | Print | Product List | Glossary Off
Versions: 1 2 3 4 5 6 7 8 9 10 11 12 13 14 15 16 17 18 19 20 21 22 23 24 25 26 27 28 29 30 31 32 33 34 35 36 37 38 39 40 41 42 43 44 45 46 47 48 49 50

000
ASUS45 KABQ 111110
RWRNM
NEW MEXICO REGIONAL WEATHER ROUNDUP
NATIONAL WEATHER SERVICE ALBUQUERQUE NM
400 AM MST MON DEC 11 2017

NOTE: "FAIR" MEANS FEW OR NO CLOUDS BELOW 12,000 FEET AGL WITH NO
       SIGNIFICANT WEATHER OR OBSTRUCTIONS TO VISION.

      THIS PRODUCT IS RELEASED AS TWO VERSIONS.  ONE VERSION NEAR
      THE TOP OF THE HOUR CONTAINING PRELIMINARY DATA FROM ALBUQUERQUE
      AND OTHER STATIONS.  A FINAL VERSION WITH ADDITIONAL DATA IS
      ISSUED ABOUT 10 MINUTES AFTER THE HOUR.

NMZ501-503-504-510>518-111200-
NORTHWEST PLATEAU/NORTHCENTRAL MOUNTAINS

CITY           SKY/WX    TMP DP  RH WIND       PRES   REMARKS
FARMINGTON     FAIR      13  -1  54 NE7       30.51S WCI   3
LOS ALAMOS     FAIR      34  -3  20 NE7G16    30.48F WCI  27
SANTA FE       FAIR      25   1  35 N21       30.45S WCI  11
TAOS           FAIR      13   0  56 N5        30.53R WCI   5
ANGEL FIRE     FAIR       4  -1  79 CALM      30.50F

$$
NMZ402-403-502-505>509-111200-
WESTCENTRAL MOUNTAINS/SOUTHWEST MOUNTAINS

CITY           SKY/WX    TMP DP  RH WIND       PRES   REMARKS
GALLUP         FAIR       4 -15  41 SE3       30.52R
GRANTS         FAIR       3 -16  40 N3        30.52S
SILVER CITY    FAIR      26  -2  29 N8        30.41F WCI  17

$$
NMZ407-409-411-412-111200-
SOUTHERN DESERTS

CITY           SKY/WX    TMP DP  RH WIND       PRES   REMARKS
DEMING         FAIR      33   8  35 E6        30.41S WCI  28
LAS CRUCES     FAIR      32  18  55 N9        30.40F WCI  24
HOLLOMAN AFB   FAIR      24   8  51 N5        30.45F WCI  18
ALAMOGORDO     FAIR      28   9  43 N8        30.43F WCI  20
T OR C         FAIR      32  -1  24 NW6       30.43F WCI  26

$$
NMZ519>523-111200-
CENTRAL VALLEYS/CENTRAL HIGHLANDS

CITY           SKY/WX    TMP DP  RH WIND       PRES   REMARKS
ALBUQUERQUE    FAIR      30   2  30 N10       30.47S WCI  21
MORIARTY ARPT  FAIR      15  -1  49 NE5       30.46S WCI   7
CLINES CORNERS NOT AVBL
BELEN          FAIR      21   0  39 NW8       30.48S WCI  12
SOCORRO        FAIR      26   3  37 NW9       30.46F WCI  17

$$
NMZ524>526-539-540-111200-
SOUTHCENTRAL MOUNTAINS

CITY           SKY/WX    TMP DP  RH WIND       PRES   REMARKS
RUIDOSO        FAIR      36  -2  20 W5        30.44F WCI  32

$$
NMZ527>531-111200-
NORTHEAST HIGHLANDS/NORTHEAST PLAINS

CITY           SKY/WX    TMP DP  RH WIND       PRES   REMARKS
LAS VEGAS      FAIR      25  -1  32 N12       30.39F WCI  14
RATON          FAIR      20   1  43 N7        30.35F WCI  11
CLAYTON        FAIR      36  -1  21 W9        30.28F WCI  29

$$
NMZ532>537-111200-
EASTCENTRAL PLAINS

CITY           SKY/WX    TMP DP  RH WIND       PRES   REMARKS
SANTA ROSA     FAIR      34   4  28 W7        30.34S WCI  28
TUCUMCARI      FAIR      26   8  46 W13       30.30S WCI  15
CANNON AFB     FAIR      36   6  28 W13       30.33F WCI  27
CLOVIS AIRPORT FAIR      30  11  45 W13       30.32F WCI  20

$$
NMZ028-029-538-111200-
SOUTHEAST PLAINS

CITY           SKY/WX    TMP DP  RH WIND       PRES   REMARKS
ROSWELL        FAIR      24   8  50 W3        30.35F
ARTESIA        FAIR      28   7  40 N5        30.36F WCI  23
CARLSBAD       FAIR      26  23  88 NW6       30.34F WCI  19
HOBBS          FAIR      28  16  59 W8        30.34F WCI  20


$$




USA.gov is the U.S. government's official web portal to all federal, state and local government web resources and services.